[[{"header":{"parameterUnit":"m.s-1","parameterCategory":1,"la1":30.2991,"la2":30.254,"lo1":-89.0895,"lo2":-89.0444,"dy":0.0017,"dx":0.0017,"nx":28,"ny":28,"refTime":"2024-02-25T03:00:00:Z","depth":0,"parameterNumber":2,"parameterNumberName":"U-component_of_WINDS"},"data":[0,0,0,0,0,0,0,0,0,0,0,0,0,0,0,0,0,0,0,0,0,0,0,0,0,0,0,0,0,0,0,0,0,0,0,0,0,0,0,0,0,0,0,0,0,0,0,0,0,0,0,0,0,0,0,0,0,0,3.0921,3.0922,0,3.0993,3.0994,3.0995,3.0927,3.0924,3.0921,3.0919,3.0996,3.1,3.1005,0,0,0,0,0,0,0,0,0,0,0,0,0,3.0727,3.0731,3.0921,3.0922,3.0922,3.0993,3.0994,3.0995,3.0927,3.0924,3.092,3.0917,3.0994,3.1,3.1005,0,0,0,0,0,0,0,0,0,0,0,0,0,3.0806,3.0732,3.0921,3.0897,3.0896,3.0993,3.0994,3.0995,3.0928,3.0924,3.092,3.0916,3.0992,3.0999,3.1006,3.1131,0,0,3.1027,3.103,0,0,0,0,0,0,0,0,3.0802,3.0814,3.09,3.0899,3.0897,3.0947,3.0954,3.1041,3.0929,3.0916,3.0918,3.0914,3.0983,3.099,3.1013,3.1135,3.1138,3.1028,3.1032,3.1035,3.1037,0,0,0,0,0,0,0,3.0797,3.081,3.0949,3.0901,3.09,3.0884,3.0891,3.097,3.0972,3.0917,3.0912,3.0921,3.0981,3.1007,3.1014,3.1139,3.1027,3.1034,3.1038,3.1041,3.137,3.1375,0,0,0,0,0,0,3.0793,3.0806,3.0947,3.0952,3.0838,3.0891,3.0898,3.0935,3.097,3.0972,3.0925,3.0918,3.0997,3.1006,3.1017,3.1168,3.1035,3.1041,3.1045,3.1366,3.1371,3.1376,0,0,0,0,0,0,3.0789,3.0806,3.0944,3.0878,3.0894,3.0899,3.094,3.0939,3.0964,3.0977,3.0977,3.095,3.0994,3.1007,3.1104,3.1169,3.1044,3.1051,3.136,3.1367,3.1374,3.147,0,0,0,0,0,0,3.0784,3.0805,3.0852,3.0879,3.0898,3.1029,3.0944,3.0943,3.0975,3.0967,3.1,3.1002,3.0992,3.1094,3.1111,3.1177,3.1056,3.1354,3.1363,3.1371,3.1461,3.1479,3.1495,0,0,0,0,0,3.0777,3.0876,3.0855,3.0872,3.0956,3.1033,3.1044,3.1029,3.0981,3.1029,3.1037,3.1001,3.1159,3.1104,3.1122,3.1192,3.135,3.1361,3.1371,3.1453,3.1476,3.1494,0,0,0,0,0,0,3.0857,3.0879,3.0856,3.0966,3.0998,3.1021,3.1081,3.1053,3.11,3.109,3.1071,3.1079,3.1182,3.1196,3.1134,3.1316,3.1247,3.1262,3.1303,3.1325,3.1341,3.1337,3.1062,0,0,0,0,0,3.0887,3.0947,3.0963,3.1059,3.1076,3.1076,3.1109,3.1095,3.1128,3.1142,3.1157,3.1191,3.1249,3.1287,3.1341,3.1462,3.147,3.1519,3.1536,3.155,3.1563,3.1631,3.1654,3.141,3.141,3.141,0,0,3.0951,3.097,3.1009,3.1076,3.1099,3.1163,3.1088,3.1158,3.1206,3.1152,3.1245,3.1258,3.1295,3.1405,3.1454,3.142,3.1632,3.1563,3.1574,3.158,3.1644,3.1668,3.1688,3.1417,3.1416,3.1415,0,0,3.1099,3.1119,3.1202,3.1227,3.1263,3.1263,3.1283,3.1311,3.1317,3.141,3.1372,3.1429,3.1528,3.1556,3.1584,3.1746,3.1715,3.1764,3.1853,3.192,3.1939,3.1956,3.2016,3.2038,3.1777,3.1777,3.1777,0,3.1174,3.1267,3.1249,3.1322,3.1354,3.1308,3.1394,3.1419,3.1471,3.1495,3.1455,3.158,3.1602,3.1719,3.1759,3.1782,3.1806,3.1761,3.1938,3.1955,3.197,3.2028,3.205,3.1783,3.1782,3.1782,3.1781,0,3.1359,3.1424,3.1487,3.1539,3.1577,3.1656,3.1651,3.1693,3.1676,3.168,3.1777,3.1801,3.186,3.1886,3.1871,3.2003,3.1981,3.194,3.187,3.2,3.2053,3.2075,3.1791,3.1789,3.1787,3.1786,0,0,3.156,3.1601,3.1624,3.1648,3.1686,3.1737,3.1815,3.1872,3.1909,3.1947,3.2013,3.2099,3.2062,3.2094,3.2081,3.2139,3.2269,3.2091,3.2092,3.2125,3.2419,3.2452,3.2477,3.2248,3.2252,3.2255,3.2417,0,3.1711,3.1846,3.1832,3.1961,3.2023,3.1981,3.2049,3.2081,3.2087,3.2141,3.2148,3.2211,3.2156,3.2175,3.2231,3.2241,3.2328,3.2229,3.2312,3.2315,3.2306,3.2504,3.2538,3.269,3.2438,3.2441,3.2444,0,3.1906,3.1951,3.2086,3.2116,3.2141,3.2203,3.2255,3.2307,3.2343,3.2343,3.238,3.2358,3.2438,3.2366,3.2478,3.2411,3.2444,3.2455,3.246,3.2469,3.2389,3.2521,3.2737,3.2761,3.2476,3.2473,3.2471,0,3.2042,3.2136,3.223,3.2251,3.2288,3.2332,3.235,3.2381,3.2417,3.2464,3.2487,3.2542,3.2573,3.2618,3.2612,3.2559,3.2727,3.2654,3.2732,3.2733,3.2771,3.2769,3.2998,3.2789,3.2789,3.2788,3.2788,0,3.2214,3.2299,3.2292,3.235,3.2444,3.2428,3.2523,3.2535,3.2564,3.2625,3.2592,3.265,3.2638,3.2696,3.2692,3.2788,3.2801,3.2806,3.2804,3.281,3.281,3.2833,3.2823,3.2794,3.2793,3.2792,3.2791,0,3.2383,3.2381,3.2481,3.2507,3.2516,3.2585,3.2608,3.2664,3.2668,3.2746,3.2763,3.277,3.2837,3.2835,3.2912,3.2909,3.3027,3.3012,3.3016,3.3013,3.3093,3.3086,3.3347,3.3381,3.3147,3.315,3.3151,0,3.2493,3.2558,3.2592,3.263,3.265,3.2712,3.2748,3.2736,3.2776,3.2822,3.2873,3.2937,3.2988,3.3099,3.3111,3.3171,3.3158,3.3245,3.3167,3.3172,3.3163,3.316,3.3168,3.3261,3.3264,3.3266,3.3268,0,3.2691,3.2687,3.2741,3.2796,3.284,3.2883,3.2922,3.2955,3.2947,3.2994,3.3062,3.3102,3.3181,3.3246,3.3303,3.3323,3.3296,3.3292,3.3314,3.3322,3.3322,3.3326,3.306,3.3287,3.3285,3.3283,3.3282,3.3282,3.2836,3.2892,3.2925,3.2987,3.3015,3.3052,3.3107,3.3118,3.3174,3.3237,3.3226,3.3304,3.334,3.3414,3.3439,3.35,3.347,3.3501,3.3509,3.3518,3.3528,3.3311,3.351,3.351,3.3509,3.3509,3.3509,0,3.3034,3.3053,3.311,3.3166,3.3215,3.3183,3.3225,3.3269,3.3338,3.3373,3.3424,3.3504,3.3568,3.3586,3.3648,3.3694,3.3684,3.3711,3.3709,3.3715,3.355,3.3526,3.3719,3.3719,3.3719,3.3719,3.3719,3.3719,3.3143,3.3237,3.3238,3.3347,3.3366,3.3441,3.3468,3.3503,3.3532,3.3622,3.3675,3.3686,3.3716,3.378,3.3838,3.3842,3.3867,3.3901,3.39,3.3747,3.3726,3.3706,3.3683,3.3906,3.3906,3.406,3.4061,3.4062]},{"header":{"parameterUnit":"m.s-1","parameterCategory":1,"la1":30.2991,"la2":30.254,"lo1":-89.0895,"lo2":-89.0444,"dy":0.0017,"dx":0.0017,"nx":28,"ny":28,"refTime":"2024-02-25T03:00:00:Z","depth":0,"parameterNumber":3,"parameterNumberName":"V-component_of_WINDS"},"data":[0,0,0,0,0,0,0,0,0,0,0,0,0,0,0,0,0,0,0,0,0,0,0,0,0,0,0,0,0,0,0,0,0,0,0,0,0,0,0,0,0,0,0,0,0,0,0,0,0,0,0,0,0,0,0,0,0,0,0.4061,0.4061,0,0.4072,0.4072,0.4072,0.3997,0.3995,0.3993,0.3991,0.4008,0.401,0.4013,0,0,0,0,0,0,0,0,0,0,0,0,0,0.3984,0.3985,0.4061,0.4061,0.4062,0.4072,0.4072,0.4072,0.3998,0.3995,0.3992,0.399,0.4007,0.401,0.4013,0,0,0,0,0,0,0,0,0,0,0,0,0,0.4008,0.3986,0.4061,0.4025,0.4022,0.4071,0.4072,0.4072,0.3998,0.3995,0.3992,0.3989,0.4006,0.401,0.4013,0.4099,0,0,0.4024,0.4026,0,0,0,0,0,0,0,0,0.4007,0.4011,0.4031,0.4028,0.4025,0.403,0.405,0.4081,0.3999,0.4008,0.3991,0.3987,0.4018,0.4021,0.403,0.41,0.4101,0.4025,0.4027,0.4028,0.4029,0,0,0,0,0,0,0,0.4005,0.401,0.4065,0.4031,0.4027,0.4011,0.4011,0.4056,0.4031,0.4007,0.4001,0.4003,0.4016,0.4026,0.403,0.4101,0.4025,0.4028,0.403,0.4031,0.4244,0.4247,0,0,0,0,0,0,0.4007,0.4009,0.4065,0.4066,0.4008,0.4015,0.4015,0.4031,0.403,0.4027,0.4006,0.3999,0.4022,0.4025,0.403,0.4132,0.4028,0.4032,0.4034,0.4241,0.4245,0.4249,0,0,0,0,0,0,0.4006,0.4013,0.4065,0.4036,0.4041,0.402,0.4039,0.4033,0.4043,0.4029,0.4025,0.4021,0.4019,0.4025,0.4082,0.4131,0.4033,0.4037,0.4237,0.4242,0.4247,0.4335,0,0,0,0,0,0,0.4004,0.4013,0.4044,0.4037,0.4043,0.4116,0.4042,0.4036,0.4049,0.4041,0.4042,0.4039,0.4017,0.4077,0.4086,0.4134,0.404,0.4232,0.4239,0.4245,0.4328,0.4343,0.4356,0,0,0,0,0,0.4002,0.4069,0.4046,0.4053,0.4081,0.4118,0.4122,0.4093,0.4053,0.4085,0.4076,0.4039,0.4124,0.4084,0.4093,0.4143,0.4229,0.4237,0.4245,0.4322,0.434,0.4355,0,0,0,0,0,0,0.4084,0.4068,0.4042,0.4109,0.4115,0.4106,0.4145,0.4113,0.4133,0.4125,0.4091,0.4092,0.4156,0.4155,0.4111,0.4227,0.417,0.418,0.4225,0.4243,0.4256,0.4256,0.4043,0,0,0,0,0,0.411,0.414,0.4124,0.4186,0.419,0.4167,0.4182,0.416,0.4166,0.4169,0.4164,0.4173,0.4202,0.4222,0.4248,0.4327,0.4327,0.4366,0.438,0.4391,0.4401,0.4445,0.4463,0.4274,0.4274,0.4274,0,0,0.4164,0.4159,0.418,0.4202,0.4204,0.4238,0.417,0.4208,0.4234,0.4175,0.4229,0.4226,0.4235,0.4304,0.4334,0.4305,0.4453,0.4401,0.4411,0.4414,0.4455,0.4473,0.4489,0.428,0.4279,0.4278,0,0,0.428,0.4278,0.433,0.4333,0.4337,0.4321,0.4334,0.4329,0.4324,0.4377,0.4335,0.4365,0.4415,0.4423,0.4434,0.4554,0.4521,0.4563,0.4636,0.468,0.4694,0.4707,0.4752,0.4768,0.4573,0.4573,0.4573,0,0.4348,0.4395,0.436,0.4402,0.4414,0.436,0.4413,0.4419,0.4432,0.4443,0.4409,0.4471,0.4473,0.4544,0.4574,0.4583,0.4599,0.4564,0.4695,0.4707,0.4719,0.4761,0.4778,0.4578,0.4577,0.4577,0.4576,0,0.4479,0.4512,0.4553,0.4565,0.4582,0.4629,0.4604,0.4625,0.4601,0.459,0.4646,0.4646,0.4671,0.4686,0.4664,0.4755,0.4737,0.47,0.4642,0.4743,0.4782,0.4798,0.4586,0.4584,0.4582,0.4581,0,0,0.4648,0.464,0.4656,0.4661,0.4662,0.4688,0.4734,0.4757,0.4776,0.4787,0.4826,0.487,0.4835,0.4848,0.4826,0.4864,0.4961,0.4822,0.4822,0.4849,0.5064,0.5094,0.5113,0.4939,0.4942,0.4944,0.5064,0,0.4762,0.4838,0.4808,0.4887,0.4919,0.4869,0.4909,0.4915,0.4906,0.4933,0.4924,0.4956,0.4907,0.4914,0.4949,0.4942,0.5004,0.4933,0.4977,0.4979,0.4978,0.5133,0.5164,0.5277,0.5079,0.5082,0.5083,0,0.4906,0.4921,0.5003,0.4999,0.5011,0.5047,0.5067,0.5092,0.5099,0.509,0.5104,0.5074,0.5121,0.5062,0.5128,0.508,0.5096,0.5096,0.51,0.5104,0.5039,0.5144,0.5312,0.533,0.5107,0.5105,0.5103,0,0.5023,0.5065,0.5119,0.5125,0.5121,0.5148,0.5148,0.5151,0.5167,0.5185,0.5196,0.5219,0.5233,0.5253,0.5232,0.519,0.5301,0.524,0.5297,0.5298,0.5324,0.5323,0.55,0.5332,0.5332,0.5332,0.5331,0,0.5155,0.5208,0.5172,0.5205,0.5263,0.523,0.5289,0.5284,0.5287,0.5321,0.5279,0.5312,0.5281,0.5312,0.5295,0.5354,0.536,0.5356,0.5351,0.536,0.5361,0.5372,0.5364,0.5336,0.5335,0.5334,0.5334,0,0.5297,0.5274,0.5331,0.5322,0.5321,0.5365,0.5359,0.5391,0.5378,0.5422,0.543,0.5412,0.5446,0.5426,0.5461,0.545,0.5527,0.551,0.5524,0.552,0.558,0.5575,0.5771,0.5796,0.5611,0.5612,0.5614,0,0.5383,0.5422,0.5418,0.5436,0.5438,0.5469,0.5485,0.5454,0.5473,0.5484,0.5516,0.5546,0.5568,0.5626,0.5617,0.5645,0.563,0.5697,0.5634,0.5643,0.5634,0.5632,0.5637,0.571,0.5712,0.5714,0.5716,0,0.5539,0.5526,0.555,0.557,0.559,0.5605,0.5616,0.5635,0.5604,0.5627,0.5661,0.5678,0.5714,0.5746,0.5769,0.5772,0.574,0.5735,0.575,0.5761,0.5768,0.5767,0.556,0.5731,0.573,0.5728,0.5728,0.5727,0.5657,0.569,0.5692,0.572,0.5725,0.5737,0.5767,0.5759,0.5785,0.5811,0.5791,0.5832,0.5839,0.5867,0.5874,0.5907,0.588,0.5902,0.5908,0.5914,0.5923,0.5761,0.5911,0.5911,0.591,0.591,0.5909,0,0.5813,0.5812,0.5837,0.5855,0.5877,0.5843,0.5854,0.5876,0.5912,0.592,0.5943,0.5983,0.6013,0.6007,0.6035,0.6063,0.605,0.6072,0.6071,0.6072,0.5944,0.5929,0.6083,0.6083,0.6082,0.6082,0.6082,0.6082,0.5897,0.5951,0.5938,0.5996,0.5995,0.6032,0.6042,0.6054,0.6061,0.6107,0.6131,0.6126,0.6129,0.6158,0.6185,0.6183,0.6196,0.6224,0.6217,0.6098,0.6081,0.6065,0.605,0.6227,0.6227,0.6343,0.6344,0.6345]}]]